Location: Newark
(59.4564°N, 26.6917°E)
Time: 07:01:19
(UTC+00:00)

Transit 2A - All Passes

Search period start: 12 November 2019 00:00
Search period end: 22 November 2019 00:00
Orbit: 601 x 957 km, 66.7° (Epoch: 11 November)

Date Brightness Start Highest point End Pass type
(mag) Time Alt. Az. Time Alt. Az. Time Alt. Az.
12 Nov - 10:53:29 10° ESE 10:54:36 11° ESE 10:55:44 10° E daylight
12 Nov - 12:32:07 10° SSW 12:36:47 45° SE 12:41:08 10° NE daylight
12 Nov - 14:15:12 10° WSW 14:19:55 58° NNW 14:24:20 10° NE daylight
12 Nov - 15:59:35 10° WNW 16:03:46 33° N 16:07:47 10° ENE visible
12 Nov - 17:43:33 10° NW 17:47:48 40° NNE 17:51:57 10° E visible
12 Nov - 19:26:53 10° NW 19:31:17 78° SW 19:35:38 10° SE visible
12 Nov - 21:10:44 10° WNW 21:13:45 19° WSW 21:16:48 10° SSW night (unlit)
13 Nov - 11:58:20 10° S 12:02:46 35° SE 12:06:54 10° ENE daylight
13 Nov - 13:40:55 10° WSW 13:45:43 70° NW 13:50:11 10° NE daylight
13 Nov - 15:25:13 10° WNW 15:29:28 35° N 15:33:32 10° NE visible
13 Nov - 17:09:21 10° NW 17:13:32 37° NNE 17:17:35 10° E visible
13 Nov - 18:52:43 10° NW 18:57:09 84° NE 19:01:32 10° SE visible
13 Nov - 20:36:18 10° WNW 20:39:51 25° WSW 20:43:24 10° S visible
14 Nov - 11:24:42 10° S 11:28:47 27° ESE 11:32:38 10° ENE daylight
14 Nov - 13:06:43 10° SW 13:11:34 85° NW 13:16:04 10° NE daylight
14 Nov - 14:50:50 10° W 14:55:11 37° NNW 14:59:19 10° NE visible
14 Nov - 16:35:06 10° WNW 16:39:14 34° N 16:43:14 10° ENE visible
14 Nov - 18:18:35 10° NW 18:22:59 68° NNE 18:27:21 10° ESE visible
14 Nov - 20:01:59 10° WNW 20:05:53 32° WSW 20:09:48 10° S visible
15 Nov - 10:51:16 10° SSE 10:54:50 21° ESE 10:58:14 10° ENE daylight
15 Nov - 12:32:36 10° SW 12:37:26 78° SE 12:41:56 10° NE daylight
15 Nov - 14:16:28 10° W 14:20:55 41° NNW 14:25:07 10° NE daylight
15 Nov - 16:00:49 10° WNW 16:04:56 33° N 16:08:54 10° ENE visible
15 Nov - 17:44:26 10° NW 17:48:48 56° NNE 17:53:06 10° ESE visible
15 Nov - 19:27:44 10° WNW 19:31:53 43° SW 19:36:02 10° SSE visible
16 Nov - 10:18:07 10° SSE 10:20:56 15° ESE 10:23:38 10° ENE daylight
16 Nov - 11:58:34 10° SSW 12:03:20 61° SE 12:07:47 10° NE daylight
16 Nov - 13:42:06 10° W 13:46:39 47° NNW 13:50:57 10° NE daylight
16 Nov - 15:26:31 10° WNW 15:30:37 32° N 15:34:35 10° ENE visible
16 Nov - 17:10:16 10° NW 17:14:35 47° NNE 17:18:48 10° E visible
16 Nov - 18:53:33 10° NW 18:57:51 57° SW 19:02:08 10° SSE visible
16 Nov - 20:38:07 10° W 20:40:05 13° WSW 20:42:03 10° SW night (unlit)
17 Nov - 09:45:35 10° SE 09:47:04 11° ESE 09:48:32 10° E daylight
17 Nov - 11:24:38 10° SSW 11:29:17 47° SE 11:33:37 10° NE daylight
17 Nov - 13:07:47 10° WSW 13:12:26 55° NNW 13:16:48 10° NE daylight
17 Nov - 14:52:10 10° WNW 14:56:19 33° N 15:00:17 10° ENE visible
17 Nov - 16:36:06 10° NW 16:40:20 41° NNE 16:44:28 10° E visible
17 Nov - 18:19:23 10° NW 18:23:46 74° SW 18:28:08 10° SE visible
17 Nov - 20:03:19 10° WNW 20:06:13 17° WSW 20:09:07 10° SSW visible
18 Nov - 10:50:49 10° S 10:55:15 36° SE 10:59:24 10° ENE daylight
18 Nov - 12:33:30 10° WSW 12:38:14 67° NW 12:42:40 10° NE daylight
18 Nov - 14:17:48 10° WNW 14:22:00 34° N 14:26:02 10° ENE daylight
18 Nov - 16:01:53 10° NW 16:06:03 37° NNE 16:10:08 10° E visible
18 Nov - 17:45:14 10° NW 17:49:39 88° NE 17:54:02 10° SE visible
18 Nov - 19:28:50 10° WNW 19:32:18 23° WSW 19:35:47 10° S visible
19 Nov - 10:17:09 10° S 10:21:15 28° ESE 10:25:08 10° ENE daylight
19 Nov - 11:59:17 10° SW 12:04:05 81° NW 12:08:32 10° NE daylight
19 Nov - 13:43:26 10° W 13:47:42 37° NNW 13:51:48 10° NE daylight
19 Nov - 15:27:39 10° NW 15:31:46 34° N 15:35:47 10° ENE visible
19 Nov - 17:11:05 10° NW 17:15:29 71° NE 17:19:51 10° ESE visible
19 Nov - 18:54:30 10° WNW 18:58:21 31° WSW 19:02:12 10° S visible
20 Nov - 09:43:40 10° SSE 09:47:18 21° ESE 09:50:45 10° ENE daylight
20 Nov - 11:25:09 10° SW 11:29:56 81° SE 11:34:24 10° NE daylight
20 Nov - 13:09:03 10° W 13:13:26 40° NNW 13:17:36 10° NE daylight
20 Nov - 14:53:23 10° WNW 14:57:27 33° N 15:01:26 10° ENE visible
20 Nov - 16:36:57 10° NW 16:41:18 58° NNE 16:45:37 10° ESE visible
20 Nov - 18:20:15 10° WNW 18:24:21 40° SW 18:28:28 10° SSE visible
21 Nov - 09:10:27 10° SSE 09:13:23 16° ESE 09:16:12 10° ENE daylight
21 Nov - 10:51:05 10° SW 10:55:50 64° SE 11:00:15 10° NE daylight
21 Nov - 12:34:41 10° W 12:39:10 46° NNW 12:43:26 10° NE daylight
21 Nov - 14:19:05 10° WNW 14:23:09 32° N 14:27:06 10° ENE visible
21 Nov - 16:02:47 10° NW 16:07:05 49° NNE 16:11:20 10° ESE visible
21 Nov - 17:46:03 10° NW 17:50:19 53° SW 17:54:36 10° SSE visible
21 Nov - 19:30:49 10° W 19:32:31 12° WSW 19:34:14 10° SW visible
